Zurück zum Katalog

USA 416

AktivMilitärVLEO
NORAD 61037·PAYLOAD·🇺🇸 United States

Gestartet Sep 6, 2024 von Vandenberg Space Force Base

Loading…

Nächste Überflüge (nächste 24 Stunden)

TLE

VeraltetSource: Mike McCants

Epoche: Sep 9, 2026, 19:17 UTC

1 61037U 24160S   26252.80364777 0.00000000  00000-0  00000-0 0    02
2 61037  70.0230 144.6700 0001000  91.8948 268.1052 14.96712958    09

Verfolge USA 416 in Echtzeit mit AllMySat

Download on the App Store